Airfield :
LOGIN :

Register | Disclaimer

   EN    FR    IT 

 










Legend :    VFR   Marginal VFR   IFR   Intensive IFR   Very Intensive IFR
Visi :
Ceiling :
>= 8 km
>= 3000ft
5 to 8 km
1000 to 3000 ft
1500m to 5 km
500 to 1000 ft
800 to 1500m
200 to 500 ft
< 800m
< 200 ft
Symbols :   Thunderstorms  Fog  Heavy snow  Heavy precipitations  Wind > 20 kt
SIGMETs :     Misc.  Thunderstorms  Icing  Turbulence  Mountain Waves  Volcanic Ashes







- Airport Elevation : 17 ft
- IATA code : MPL
- Download approach charts


LFMT - Montpellier Méditerranée

CURRENT METAR :
  • 212200Z AUTO VRB02KT CAVOK 22/14 Q1013 NOSIG

EXPIRED METARs :
  • 212130Z AUTO 26002KT CAVOK 22/16 Q1012 NOSIG
  • 212100Z AUTO 00000KT CAVOK 22/16 Q1012 NOSIG
  • 212030Z AUTO 28001KT CAVOK 23/17 Q1012 NOSIG
  • 212000Z AUTO 26003KT CAVOK 23/16 Q1012 NOSIG
  • 211930Z AUTO 24003KT CAVOK 23/17 Q1011 NOSIG

TAF TAF LFMT
Valid from the 21 at 21:00 until the 22 at 21:00 UTC


212000Z 2121/2221 20006KT CAVOK
BECMG 2123/2201 VRB03KT
BECMG 2211/2213 18010KT
ATIS : +33 4 67 13 11 70
No reported NOTAMs for that airfield.



MET'MAP, your aeronautical weather chart ! - Copyright ORBIFLY December 2007 - Disclaimer

ORBIFLY MET'MAP TEAM :

Programming & Development : Alexandra Zaïnal
Concept & Development : Baudouin d'Aumeries
Co-Development & Prog : Marc-Olivier Méhu
Technical & hardware support : Manuel Goepfert

Contact : metmap@orbifly.com




SOURCES & CREDITS :

   NOAA